Weather History for Kimball, NE

Change the Weather History Date:

Friday, January 13, 2012

  Actual Average (KSNY) Record (KSNY)
Temperature  
Mean Temperature 30 °F 29 °F  
Max Temperature 42 °F 42 °F 69 °F (1987)
Min Temperature 17 °F 16 °F -16 °F (1997)
Degree Days  
Heating Degree Days 36 36  
Month to date heating degree days 468  
Since 1 July heating degree days 3015  
Cooling Degree Days 0 0  
Month to date cooling degree days 0  
Year to date cooling degree days 0  
Moisture  
Dew Point 7 °F    
Average Humidity 40    
Maximum Humidity 67    
Minimum Humidity 24    
Precipitation  
Precipitation 0.00 in 0.01 in 0.12 in (1957)
Month to date precipitation 0.09  
Year to date precipitation 0.09  
Sea Level Pressure  
Sea Level Pressure 29.95 in    
Wind  
Wind Speed 15 mph (WNW)    
Max Wind Speed 31 mph    
Max Gust Speed 45 mph    
Visibility 10 miles    
Events      
T = Trace of Precipitation, MM = Missing Value Source: NWS Daily Summary

Daily Weather History Graph

Daily Weather History Graph

Search for Another Location

Airport:

Trip Planner

Search our weather history database for the weather conditions in past years. The results will help you decide how hot, cold, wet, or windy it might be!

Date:

Astronomy

Jan. 13, 2012 Rise Set
Actual Time 8:18 AM CST 5:48 PM CST
Civil Twilight 7:48 AM CST 6:18 PM CST
Nautical Twilight 7:14 AM CST 6:52 PM CST
Astronomical Twilight 6:41 AM CST 7:25 PM CST
Moon 11:07 PM CST (1/13) 10:31 AM CST (1/13)
Length of Visible Light 10h 30m
Length of Day
9h 29m
Waning Gibbous, 78% of the Moon is Illuminated
Jan 13
Waning Gibbous
Jan 16
Last Quarter
Jan 23
New
Jan 30
First Quarter
Feb 7
Full

Hourly Weather History & Observations

Time (CST) Temp. Windchill Dew Point Humidity Pressure Visibility Wind Dir Wind Speed Gust Speed Precip Events Conditions
12:15 AM 17.1 °F 3.6 °F 7.7 °F 67% 30.00 in 10.0 mi West 12.7 mph - N/A   Clear
12:35 AM 19.0 °F 5.6 °F 7.7 °F 61% 30.00 in 10.0 mi WNW 13.8 mph - N/A   Clear
12:55 AM 20.8 °F 6.8 °F 7.7 °F 57% 29.99 in 10.0 mi WNW 16.1 mph - N/A   Clear
1:15 AM 21.2 °F 7.3 °F 7.7 °F 56% 29.98 in 10.0 mi WNW 16.1 mph 20.7 mph N/A   Clear
1:35 AM 22.1 °F 8.5 °F 7.7 °F 54% 29.98 in 10.0 mi WNW 16.1 mph - N/A   Clear
1:55 AM 23.0 °F 10.1 °F 7.7 °F 52% 29.97 in 10.0 mi WNW 15.0 mph - N/A   Clear
2:15 AM 23.5 °F 11.8 °F 8.2 °F 52% 29.97 in 10.0 mi WNW 12.7 mph - N/A   Clear
2:35 AM 22.6 °F 12.6 °F 8.4 °F 55% 29.96 in 10.0 mi West 9.2 mph - N/A   Clear
2:55 AM 21.2 °F 10.1 °F 8.4 °F 58% 29.96 in 10.0 mi West 10.4 mph - N/A   Clear
3:15 AM 21.0 °F 10.6 °F 7.7 °F 56% 29.96 in 10.0 mi WNW 9.2 mph - N/A   Clear
3:35 AM 22.5 °F 10.5 °F 7.5 °F 53% 29.96 in 10.0 mi WNW 12.7 mph - N/A   Clear
3:55 AM 20.5 °F 9.2 °F 7.0 °F 56% 29.96 in 10.0 mi West 10.4 mph - N/A   Clear
4:15 AM 21.2 °F 10.1 °F 6.6 °F 53% 29.95 in 10.0 mi West 10.4 mph - N/A   Clear
4:35 AM 19.2 °F 7.7 °F 6.4 °F 58% 29.95 in 10.0 mi West 10.4 mph - N/A   Clear
4:55 AM 19.8 °F 8.3 °F 5.9 °F 55% 29.95 in 10.0 mi WNW 10.4 mph - N/A   Clear
5:15 AM 18.9 °F 7.2 °F 6.3 °F 58% 29.95 in 10.0 mi WNW 10.4 mph - N/A   Clear
5:35 AM 20.1 °F 10.3 °F 7.5 °F 58% 29.95 in 10.0 mi WNW 8.1 mph - N/A   Clear
5:55 AM 22.3 °F 11.5 °F 7.5 °F 53% 29.95 in 10.0 mi WNW 10.4 mph - N/A   Clear
6:15 AM 23.9 °F 13.5 °F 7.2 °F 49% 29.95 in 10.0 mi WNW 10.4 mph - N/A   Clear
6:55 AM 25.3 °F 16.7 °F 7.2 °F 46% 29.95 in 10.0 mi NW 8.1 mph - N/A   Overcast
7:15 AM 26.2 °F 17.1 °F 7.0 °F 44% 29.95 in 10.0 mi NW 9.2 mph - N/A   Mostly Cloudy
7:35 AM 25.7 °F 16.4 °F 7.5 °F 46% 29.95 in 10.0 mi WNW 9.2 mph - N/A   Overcast
8:15 AM 28.4 °F 16.6 °F 5.9 °F 39% 29.94 in 10.0 mi WNW 16.1 mph - N/A   Overcast
8:35 AM 28.9 °F 17.3 °F 6.3 °F 38% 29.94 in 10.0 mi WNW 16.1 mph - N/A   Overcast
8:55 AM 29.3 °F 18.6 °F 6.1 °F 37% 29.95 in 10.0 mi WNW 13.8 mph - N/A   Overcast
9:15 AM 30.0 °F 21.1 °F 6.8 °F 38% 29.95 in 10.0 mi WNW 10.4 mph - N/A   Overcast
9:35 AM 31.3 °F 21.6 °F 6.8 °F 36% 29.95 in 10.0 mi WNW 12.7 mph - N/A   Overcast
9:55 AM 32.0 °F 21.6 °F 6.1 °F 34% 29.96 in 10.0 mi WNW 15.0 mph 19.6 mph N/A   Overcast
10:35 AM 35.8 °F 25.4 °F 5.9 °F 29% 29.96 in 10.0 mi WNW 18.4 mph 25.3 mph N/A   Scattered Clouds
10:55 AM 37.4 °F 27.2 °F 4.8 °F 26% 29.96 in 10.0 mi NW 19.6 mph 32.2 mph N/A   Scattered Clouds
11:15 AM 37.8 °F 26.3 °F 5.0 °F 26% 29.97 in 10.0 mi NW 25.3 mph 29.9 mph N/A   Mostly Cloudy
11:35 AM 37.6 °F 26.1 °F 5.5 °F 26% 29.97 in 10.0 mi NW 25.3 mph 36.8 mph N/A   Overcast
11:55 AM 38.5 °F 28.9 °F 6.6 °F 27% 29.98 in 10.0 mi NW 18.4 mph 31.1 mph N/A   Overcast
12:15 PM 38.8 °F 28.8 °F 6.8 °F 27% 29.98 in 10.0 mi NW 20.7 mph 32.2 mph N/A   Overcast
12:35 PM 38.8 °F 29.1 °F 7.3 °F 27% 29.97 in 10.0 mi NW 19.6 mph 28.8 mph N/A   Overcast
12:55 PM 39.9 °F 30.2 °F 7.9 °F 27% 29.97 in 10.0 mi NW 20.7 mph 27.6 mph N/A   Overcast
1:15 PM 38.3 °F 28.7 °F 7.0 °F 27% 29.96 in 10.0 mi WNW 18.4 mph - N/A   Overcast
1:35 PM 39.2 °F 29.0 °F 7.2 °F 27% 29.95 in 10.0 mi NW 21.9 mph 31.1 mph N/A   Overcast
1:55 PM 41.0 °F 31.6 °F 9.3 °F 27% 29.94 in 10.0 mi WNW 20.7 mph 25.3 mph N/A   Mostly Cloudy
2:15 PM 41.9 °F 30.9 °F 7.9 °F 25% 29.93 in 10.0 mi WNW 31.1 mph 36.8 mph N/A   Clear
2:35 PM 42.1 °F 31.5 °F 7.2 °F 24% 29.93 in 10.0 mi NW 28.8 mph 38.0 mph N/A   Clear
2:55 PM 42.8 °F 32.5 °F 7.7 °F 24% 29.93 in 10.0 mi WNW 28.8 mph 36.8 mph N/A   Clear
3:15 PM 42.8 °F 33.3 °F 7.7 °F 24% 29.92 in 10.0 mi WNW 24.2 mph 36.8 mph N/A   Clear
3:35 PM 42.4 °F 32.0 °F 8.4 °F 25% 29.93 in 10.0 mi WNW 28.8 mph 35.7 mph N/A   Clear
3:55 PM 42.1 °F 31.7 °F 9.0 °F 26% 29.93 in 10.0 mi WNW 27.6 mph 35.7 mph N/A   Clear
4:15 PM 41.4 °F 31.2 °F 8.1 °F 25% 29.93 in 10.0 mi WNW 25.3 mph 34.5 mph N/A   Clear
4:35 PM 41.0 °F 29.8 °F 8.6 °F 26% 29.93 in 10.0 mi WNW 29.9 mph 44.9 mph N/A   Clear
4:55 PM 40.1 °F 29.5 °F 9.0 °F 28% 29.93 in 10.0 mi NW 25.3 mph 35.7 mph N/A   Clear
5:15 PM 39.4 °F 29.8 °F 9.5 °F 29% 29.94 in 10.0 mi WNW 19.6 mph 29.9 mph N/A   Clear
5:35 PM 38.1 °F 27.1 °F 9.3 °F 30% 29.94 in 10.0 mi WNW 24.2 mph 29.9 mph N/A   Clear
5:55 PM 36.1 °F 25.9 °F 9.7 °F 33% 29.95 in 10.0 mi WNW 18.4 mph - N/A   Clear
6:15 PM 35.8 °F 23.9 °F 9.5 °F 34% 29.95 in 10.0 mi WNW 24.2 mph 28.8 mph N/A   Clear
6:35 PM 35.4 °F 24.0 °F 9.1 °F 34% 29.97 in 10.0 mi WNW 21.9 mph - N/A   Clear
6:55 PM 34.3 °F 23.9 °F 9.0 °F 35% 29.97 in 10.0 mi WNW 17.3 mph - N/A   Clear
7:15 PM 34.0 °F 22.4 °F 9.0 °F 35% 29.98 in 10.0 mi WNW 20.7 mph 28.8 mph N/A   Clear
7:35 PM 32.5 °F 21.5 °F 9.5 °F 38% 29.98 in 10.0 mi WNW 17.3 mph - N/A   Clear
7:55 PM 31.8 °F 21.0 °F 9.5 °F 39% 29.99 in 10.0 mi WNW 16.1 mph - N/A   Clear
8:15 PM 31.8 °F 21.4 °F 9.3 °F 39% 29.99 in 10.0 mi West 15.0 mph - N/A   Clear
8:55 PM 32.0 °F 20.1 °F 8.6 °F 38% 29.98 in 10.0 mi West 19.6 mph - N/A   Clear
9:15 PM 31.1 °F 18.9 °F 9.0 °F 40% 29.99 in 10.0 mi West 19.6 mph - N/A   Clear
9:35 PM 29.5 °F 17.6 °F 9.3 °F 43% 30.00 in 10.0 mi West 17.3 mph - N/A   Clear
9:55 PM 29.1 °F 17.9 °F 9.1 °F 43% 30.01 in 10.0 mi West 15.0 mph - N/A   Clear
10:35 PM 27.0 °F 15.6 °F 9.5 °F 48% 30.03 in 10.0 mi WNW 13.8 mph - N/A   Clear
10:55 PM 27.0 °F 17.3 °F 9.5 °F 48% 30.05 in 10.0 mi NW 10.4 mph - N/A   Clear
11:15 PM 31.1 °F 20.9 °F 11.3 °F 44% 30.05 in 10.0 mi NNW 13.8 mph - N/A   Clear
11:35 PM 30.0 °F 20.0 °F 11.3 °F 46% 30.06 in 10.0 mi NW 12.7 mph - N/A   Clear
11:55 PM 26.4 °F 18.0 °F 11.3 °F 53% 30.06 in 10.0 mi NW 8.1 mph - N/A   Clear